SCP
0 0 0 0 0 0 0 0 0 0 0 0 0 0 0 0 0 0 0 0 0 0 0 0 0 0 0 0 0 0 0 0 0 0 0 0 0 0 0 0 0 0 0
0 0 0 0 0 0 0 0 0 0 0 0 0 0 0 0 0 0 0 0 0 0 0 0 0 0 0 0 0 0 0 0 0 0 0 0 0 0 0 0 0 0 0
0 0 0 0 0 0 0 0 0 0 0 0 0 0 0 0 0 0 0 0 0 0 0 1 1 1 1 1 0 0 0 0 0 0 0 0 0 0 0 0 0 0 0
0 0 0 0 0 0 0 0 0 0 0 0 0 0 0 0 0 0 0 0 0 0 0 0 1 1 1 1 1 1 1 0 0 0 0 0 0 0 0 0 0 0 0
0 0 0 0 0 0 0 0 0 0 0 0 0 0 0 0 0 0 0 0 0 0 0 0 0 1 1 1 1 1 1 0 0 0 0 0 0 0 0 0 0 0 0
0 0 0 0 0 0 0 0 0 0 0 0 0 0 0 0 0 0 0 0 0 0 0 0 0 0 0 1 1 1 1 1 0 0 0 0 0 0 0 0 0 0 0
0 0 0 0 0 0 0 0 0 0 0 0 0 0 0 0 0 0 0 0 0 0 0 0 0 0 0 0 1 1 1 1 1 0 0 0 0 0 0 0 0 0 0
0 0 0 0 0 0 0 0 0 0 0 0 0 0 0 0 0 0 0 0 0 0 0 0 0 0 0 0 0 0 1 1 1 0 0 0 0 0 0 0 0 0 0
0 0 0 0 0 0 0 0 0 0 0 0 0 0 0 0 0 0 0 0 0 0 0 0 0 0 0 0 0 0 0 0 0 0 0 0 0 0 0 0 0 0 0
0 0 0 0 0 0 0 0 0 0 0 0 0 0 0 0 0 0 0 0 0 0 0 0 0 0 0 0 0 0 0 0 0 0 0 0 1 1 0 0 0 0 0
0 0 0 0 0 0 0 0 0 0 0 0 0 0 0 0 0 0 0 0 0 0 0 0 0 0 0 0 0 0 0 0 0 0 0 0 0 1 1 0 0 0 0
1 1 0 0 0 0 0 0 0 0 0 0 0 0 0 0 0 0 0 0 0 0 0 0 0 0 0 0 0 0 0 0 0 0 0 0 0 0 0 0 0 0 0
1 1 0 0 0 0 0 0 0 0 0 0 0 0 0 0 0 0 0 0 0 0 0 0 0 0 0 0 0 0 0 0 0 0 0 0 0 0 0 0 0 0 0
1 0 0 0 0 0 0 0 0 0 0 0 0 0 0 0 0 0 0 0 0 0 0 0 0 0 0 0 0 0 0 0 0 0 0 0 0 0 0 0 0 0 0
0 0 0 0 0 0 0 0 0 0 0 0 0 0 0 0 0 0 0 0 0 0 0 0 0 0 0 0 0 0 0 0 0 0 0 0 0 0 0 0 0 0 0
0 0 0 0 0 0 0 0 0 0 0 0 0 0 0 0 0 0 0 0 0 0 0 0 0 0 0 0 0 0 0 0 0 0 0 0 0 0 0 0 0 0 0
0 0 0 0 0 0 0 0 0 0 0 0 0 0 0 0 0 0 0 0 0 0 0 0 0 0 0 0 0 0 0 0 0 0 0 0 0 0 0 0 0 0 0
0 0 0 0 0 0 0 0 0 0 0 0 0 0 0 0 0 0 0 0 0 0 0 0 0 0 0 0 0 0 0 0 0 0 0 0 0 0 0 0 0 0 0
0 0 0 0 0 0 0 0 0 0 0 0 0 0 0 0 0 0 0 0 0 0 0 0 0 0 0 0 0 0 0 0 0 0 0 0 0 0 0 0 0 0 0
0 0 0 0 0 0 0 0 0 0 0 0 0 0 0 0 0 0 0 0 0 0 0 0 0 0 0 0 0 0 0 0 0 0 0 0 0 0 0 0 0 0 0
0 0 0 0 0 0 0 0 0 0 0 0 0 0 0 0 0 0 0 0 0 0 0 0 0 0 0 0 0 0 0 0 0 0 0 0 0 0 0 0 0 0 0
0 0 0 0 0 0 0 0 0 0 0 0 0 0 0 0 0 0 0 0 0 0 0 0 0 0 0 0 0 0 0 0 0 0 0 0 0 0 0 0 0 0 0
0 0 0 0 0 0 0 0 0 0 0 0 0 0 0 0 0 0 0 0 0 0 0 0 0 0 0 0 0 0 0 0 0 0 0 0 0 0 0 0 0 0 0
0 0 0 0 0 0 0 0 0 0 0 0 0 0 0 0 0 0 0 0 0 0 0 0 0 0 0 0 0 0 0 0 0 0 0 0 0 0 0 0 0 0 0
0 0 0 0 0 0 0 0 0 0 0 0 0 0 0 0 0 0 0 0 0 0 0 0 0 0 0 0 0 0 0 0 0 0 0 0 0 0 0 0 0 0 0
0 0 0 0 0 0 0 0 0 0 0 0 0 0 0 0 0 0 0 0 0 0 0 0 0 0 0 0 0 0 0 0 0 0 0 0 0 0 0 0 0 0 0
Wind_Speed
4 3 2 2 2 2 2 2 2 2 1 1 2 2 3 3 3 3 2 6 7 7 7 7 7 7 6 5 5 4 4 3 3 3 2 2 3 3 4 4 4 5 5
4 4 4 3 3 3 3 3 3 2 2 2 2 3 3 3 4 4 4 4 8 9 10 10 9 9 8 7 7 6 5 4 4 3 2 2 1 1 2 2 3 3 4
6 5 4 4 4 3 3 2 2 1 2 2 3 3 3 4 4 5 5 4 4 7 10 12 12 11 11 10 9 8 8 6 5 4 4 3 2 1 0 1 1 2 3
7 6 5 5 5 4 3 3 3 2 3 3 3 3 3 3 5 5 4 4 4 4 7 13 13 13 13 12 12 11 10 9 8 7 6 5 4 3 3 2 2 2 2
7 6 5 5 5 4 4 4 3 3 3 3 4 3 3 4 4 4 5 6 6 6 5 8 11 12 12 14 14 13 12 11 11 9 8 7 6 5 5 4 4 4 4
8 7 5 6 5 4 4 4 4 4 3 3 3 3 4 4 4 5 6 6 6 7 6 6 6 7 11 14 15 15 14 13 12 11 10 9 8 7 7 6 6 6 5
7 7 5 5 6 6 7 7 4 4 4 2 1 3 3 5 5 5 5 5 6 6 6 6 5 4 5 12 15 16 16 15 14 13 12 11 10 9 9 8 8 7 7
6 6 7 6 6 6 6 6 5 3 3 4 4 2 3 4 4 5 4 5 5 3 5 5 5 5 4 3 6 12 14 15 15 14 14 13 12 10 10 10 9 9 9
6 6 7 6 6 6 6 7 7 7 5 4 5 4 4 5 3 2 3 3 3 3 4 3 5 5 5 4 4 7 10 12 14 14 13 13 13 12 12 11 10 9 9
4 4 5 6 6 6 6 7 7 7 6 5 4 5 5 3 3 3 2 2 2 3 4 3 3 4 4 3 5 8 9 10 14 14 14 14 13 13 13 12 11 10 10
3 3 3 3 4 5 6 6 6 7 6 6 5 4 5 4 4 4 5 3 1 2 2 2 2 2 3 3 3 6 10 12 13 14 15 15 14 13 12 12 11 10 10
2 2 2 3 3 3 4 5 5 6 6 6 5 5 4 4 5 5 7 5 4 2 1 1 1 2 2 2 4 7 10 11 12 13 14 14 13 12 11 10 9 8 8
2 2 2 2 3 3 3 4 4 4 5 5 5 5 5 5 3 3 4 4 3 1 1 0 1 1 1 1 2 5 7 10 11 12 13 12 9 7 7 8 8 8 8
2 1 2 2 2 2 2 2 2 3 2 4 4 4 3 3 2 3 3 3 3 2 2 2 0 1 1 1 1 3 3 7 9 10 11 9 7 6 7 7 8 9 8
0 0 1 1 1 1 1 1 1 1 1 2 2 2 2 1 1 1 2 3 3 4 3 2 0 1 1 1 1 0 1 4 6 6 6 6 6 7 6 7 8 8 8
1 1 1 1 1 1 1 1 1 1 2 1 1 2 1 1 1 1 0 1 2 3 2 1 1 1 1 1 1 2 1 1 3 4 5 5 6 6 6 7 8 9 9
2 2 2 3 3 3 3 3 3 3 3 2 2 3 3 2 2 2 2 1 1 1 2 1 2 2 2 2 2 2 2 1 2 4 5 6 6 6 7 8 9 10 10
3 3 3 4 4 4 3 3 3 3 4 4 3 4 4 3 3 3 2 2 2 1 1 1 1 1 2 1 1 1 2 1 2 4 6 6 6 7 8 9 9 10 10
4 4 4 5 4 4 4 4 5 5 5 5 4 4 4 4 4 3 3 3 2 2 2 2 2 1 1 1 1 1 1 2 2 3 5 6 7 7 8 9 10 11 11
5 5 5 5 5 5 5 5 6 6 6 6 6 5 4 4 4 4 3 3 3 3 3 2 2 1 1 1 1 1 1 2 2 2 3 4 6 8 9 10 10 10 11
5 4 5 5 4 4 4 5 5 6 6 6 6 5 5 5 6 5 3 3 3 2 2 2 1 1 1 1 0 0 1 2 2 1 2 2 3 3 4 7 9 10 11
4 5 5 5 4 4 8 9 7 5 5 6 5 5 5 6 7 8 8 6 4 2 1 1 1 0 1 1 0 0 0 1 2 1 2 3 2 4 3 3 8 11 12
4 5 4 5 5 6 9 10 10 6 5 5 4 4 3 4 6 4 6 7 6 6 3 2 2 1 1 2 1 1 1 1 2 2 1 4 2 3 3 5 12 12 12
4 3 4 4 4 6 9 10 10 6 5 5 4 3 3 2 2 3 3 3 3 3 3 1 2 2 2 2 3 2 2 2 3 2 2 3 3 3 4 4 10 10 8
3 3 3 4 4 4 7 8 8 4 4 4 3 2 2 1 2 4 3 2 2 2 3 3 2 1 3 3 1 1 0 1 3 2 1 2 3 3 4 3 5 7 7
3 3 3 3 3 2 5 7 7 3 3 2 2 2 2 1 2 2 2 1 1 2 1 2 3 4 3 3 2 1 2 2 1 3 1 1 2 3 5 3 2 3 4
Wind_Direction
167 168 168 169 170 164 170 172 173 180 195 200 200 208 221 226 227 225 243 246 240 234 227 218 212 208 205 199 192 181 170 162 148 131 113 92 75 67 61 54 49 45 44
174 176 181 187 192 189 188 189 194 198 214 220 232 225 228 231 233 229 230 246 241 234 232 230 226 220 218 214 209 202 197 195 186 179 170 151 115 68 52 47 39 30 25
182 184 188 198 205 196 190 189 202 199 225 232 245 240 231 230 231 230 228 230 240 239 236 235 233 228 225 223 219 213 209 209 208 206 205 201 200 214 270 344 8 2 359
188 186 194 207 205 193 189 195 198 210 230 235 247 250 239 235 235 233 229 227 227 233 238 239 238 234 231 229 227 222 215 213 213 214 217 219 222 233 246 257 275 297 315
194 193 201 207 196 196 201 206 202 199 220 231 239 248 246 241 239 234 231 230 227 227 229 241 240 237 234 233 234 231 224 217 215 216 219 223 228 235 244 252 261 271 284
198 198 204 205 193 198 207 208 210 206 213 220 238 256 253 245 237 231 232 231 228 228 227 232 237 239 234 234 237 239 235 227 219 217 220 224 229 235 245 253 259 264 271
196 198 205 201 197 206 212 207 201 208 217 186 203 282 273 244 238 235 228 229 234 231 227 228 228 230 237 236 237 240 241 238 229 221 221 223 227 233 242 250 256 262 269
200 201 203 203 202 209 213 206 196 192 204 179 179 212 289 306 265 238 226 229 237 230 232 231 228 228 229 232 241 243 243 244 240 230 224 225 228 234 243 250 255 261 266
205 206 207 207 205 206 215 212 203 202 213 207 197 189 207 239 283 282 237 235 235 227 235 233 230 230 228 225 235 242 239 239 241 239 234 232 231 236 242 248 252 258 264
204 207 207 208 208 209 216 215 208 209 208 216 211 223 225 201 218 279 274 246 232 235 237 234 234 229 223 223 227 230 229 229 236 241 245 243 240 241 244 246 250 257 261
208 209 211 209 214 216 220 218 212 213 215 218 208 200 221 230 225 238 264 260 256 241 239 239 239 237 225 224 226 229 228 232 237 244 248 249 246 247 254 256 256 261 265
212 219 221 220 224 225 225 227 223 220 224 225 221 205 197 198 206 216 241 242 244 236 215 243 248 248 235 226 233 231 230 234 239 246 251 253 255 260 263 269 269 273 278
222 238 228 231 233 238 234 231 224 225 224 225 225 223 220 222 203 202 229 242 236 228 235 252 275 287 268 234 241 231 234 238 241 245 251 258 265 275 284 287 286 291 289
232 249 237 235 245 248 241 227 222 224 219 221 226 221 219 226 214 208 211 215 242 240 237 247 346 324 323 314 267 227 245 242 246 250 257 265 276 284 286 285 287 287 290
249 279 258 248 254 240 230 198 202 206 196 212 219 210 205 209 192 221 218 208 218 246 244 210 223 13 359 347 318 353 351 263 260 265 271 280 287 286 280 280 281 283 284
50 60 55 59 57 53 66 95 95 89 104 89 94 103 94 82 88 77 140 212 215 223 233 111 79 29 2 7 30 50 28 311 296 288 286 289 287 281 282 283 284 282 280
49 56 62 66 64 56 58 77 76 79 89 79 72 89 81 71 80 66 62 64 51 185 212 110 64 35 35 39 25 40 51 31 338 299 286 284 281 281 282 282 281 279 278
54 60 68 71 67 62 60 74 83 80 87 86 78 83 78 77 72 61 65 64 52 43 132 144 81 42 39 36 33 35 33 23 354 309 297 295 292 289 286 283 283 281 281
60 58 66 71 70 70 72 72 82 83 81 80 80 83 81 86 78 67 68 67 56 50 62 105 96 61 45 34 36 24 25 7 340 325 313 305 302 297 293 288 286 284 284
69 66 68 70 71 72 75 78 85 86 83 76 72 75 79 90 98 93 80 75 74 68 65 81 87 68 54 31 54 20 347 346 325 324 316 313 310 310 304 297 291 288 285
76 77 79 77 78 81 85 92 89 91 89 82 71 65 69 84 99 101 100 98 92 84 81 82 85 63 28 10 2 355 320 325 306 311 317 301 302 296 297 297 295 287 279
78 78 77 78 75 83 100 102 102 91 89 89 82 68 63 60 69 74 80 84 90 96 106 110 105 133 247 245 224 285 334 358 318 318 323 292 275 277 276 265 281 284 281
86 82 78 79 79 89 97 101 103 96 91 88 85 76 68 62 61 59 63 58 47 50 76 133 156 206 220 219 192 251 253 239 255 278 320 288 282 275 272 278 290 287 283
97 92 86 84 85 92 98 101 102 92 87 81 80 83 80 52 66 92 82 59 38 23 29 86 173 215 225 221 198 198 219 266 274 263 212 273 294 279 284 284 294 290 288
108 99 95 92 90 94 103 109 109 98 89 76 65 68 81 53 54 84 92 73 28 352 6 26 26 337 318 306 253 128 112 327 306 293 230 251 298 304 294 288 300 306 304
126 118 104 97 101 103 113 117 118 110 99 83 56 39 40 30 9 67 117 124 305 293 325 360 9 5 2 350 3 138 174 188 256 286 271 258 295 331 315 293 278 284 291